[[{"header":{"parameterUnit":"m.s-1","parameterCategory":1,"la1":30.2991,"la2":30.254,"lo1":-89.0895,"lo2":-89.0444,"dy":0.0017,"dx":0.0017,"nx":28,"ny":28,"refTime":"2023-10-20T21:00:00:Z","depth":0,"parameterNumber":2,"parameterNumberName":"U-component_of_WINDS"},"data":[0,0,0,0,0,0,0,0,0,0,0,0,0,0,0,0,0,0,0,0,0,0,0,0,0,0,0,0,0,0,0,0,0,0,0,0,0,0,0,0,0,0,0,0,0,0,0,0,0,0,0,0,0,0,0,0,0,0,0.5003,0.5003,0,0.4988,0.4988,0.4988,0.4944,0.4943,0.4942,0.4941,0.493,0.4931,0.4931,0,0,0,0,0,0,0,0,0,0,0,0,0,0.4995,0.4995,0.5003,0.5003,0.5003,0.4989,0.4988,0.4988,0.4944,0.4943,0.4942,0.4941,0.493,0.4931,0.4931,0,0,0,0,0,0,0,0,0,0,0,0,0,0.4991,0.4995,0.5003,0.4979,0.4977,0.4989,0.4988,0.4988,0.4945,0.4943,0.4942,0.494,0.493,0.493,0.4931,0.4966,0,0,0.4934,0.4935,0,0,0,0,0,0,0,0,0.4991,0.4991,0.4983,0.4981,0.4978,0.4967,0.4981,0.4981,0.4945,0.4957,0.4941,0.494,0.4944,0.4943,0.4944,0.4966,0.4965,0.4934,0.4935,0.4935,0.4935,0,0,0,0,0,0,0,0.4992,0.4992,0.4997,0.4983,0.498,0.497,0.4967,0.4981,0.4959,0.4956,0.4953,0.4951,0.4942,0.4943,0.4943,0.4965,0.4934,0.4935,0.4936,0.4936,0.5014,0.5016,0,0,0,0,0,0,0.4995,0.4992,0.4998,0.4997,0.4981,0.4971,0.4969,0.4972,0.4958,0.4955,0.4953,0.4949,0.4942,0.4942,0.4943,0.4983,0.4935,0.4936,0.4937,0.5013,0.5015,0.5016,0,0,0,0,0,0,0.4995,0.4996,0.4998,0.4994,0.4993,0.4973,0.4977,0.4972,0.4973,0.4956,0.4952,0.4958,0.4941,0.4941,0.496,0.4982,0.4936,0.4937,0.5011,0.5013,0.5016,0.5064,0,0,0,0,0,0,0.4995,0.4996,0.5009,0.4994,0.4994,0.5016,0.4978,0.4973,0.4975,0.497,0.496,0.4957,0.494,0.4959,0.4961,0.4982,0.4938,0.5009,0.5012,0.5015,0.506,0.5067,0.5073,0,0,0,0,0,0.4995,0.5024,0.501,0.5011,0.5009,0.5017,0.5017,0.4996,0.4976,0.4989,0.4978,0.4957,0.4979,0.4962,0.4964,0.4985,0.5008,0.5011,0.5015,0.5057,0.5066,0.5073,0,0,0,0,0,0,0.5043,0.5022,0.5006,0.5031,0.5026,0.501,0.5026,0.5006,0.5008,0.5004,0.4979,0.4977,0.5,0.4994,0.4975,0.5018,0.499,0.4994,0.5021,0.5029,0.5036,0.5038,0.4939,0,0,0,0,0,0.5056,0.5064,0.5045,0.5069,0.5067,0.5047,0.505,0.5034,0.5028,0.5027,0.5017,0.5013,0.5019,0.5024,0.5028,0.5058,0.5056,0.5074,0.5081,0.5086,0.5091,0.5106,0.5114,0.5028,0.5028,0.5028,0,0,0.5085,0.5074,0.5081,0.5078,0.5073,0.5082,0.5046,0.5057,0.5064,0.5029,0.5046,0.5038,0.5032,0.5057,0.5068,0.5053,0.5113,0.509,0.5095,0.5097,0.511,0.5119,0.5126,0.503,0.503,0.5029,0,0,0.5141,0.5133,0.5152,0.5147,0.5138,0.5124,0.5129,0.5115,0.5108,0.5124,0.5098,0.5106,0.5117,0.5113,0.5113,0.5166,0.5147,0.5168,0.5204,0.522,0.5226,0.5232,0.5252,0.5259,0.5172,0.5172,0.5172,0,0.5178,0.519,0.5165,0.5178,0.5178,0.5144,0.5164,0.516,0.5154,0.5155,0.5138,0.515,0.5144,0.5167,0.518,0.5181,0.5186,0.5171,0.5227,0.5233,0.5238,0.5257,0.5264,0.5175,0.5175,0.5175,0.5174,0,0.5236,0.5245,0.5261,0.5255,0.5256,0.5272,0.525,0.5255,0.5238,0.5226,0.5243,0.5234,0.5236,0.5239,0.5224,0.5261,0.5252,0.5231,0.5203,0.525,0.5267,0.5273,0.5179,0.5178,0.5177,0.5177,0,0,0.5326,0.5303,0.531,0.5306,0.5293,0.5299,0.5314,0.5314,0.5319,0.5315,0.5327,0.5336,0.5316,0.5316,0.53,0.5313,0.5356,0.5291,0.529,0.5304,0.5396,0.5413,0.5422,0.5342,0.5343,0.5344,0.5397,0,0.538,0.5403,0.5379,0.5407,0.5415,0.5382,0.5394,0.5388,0.5377,0.5382,0.5369,0.5376,0.5349,0.5349,0.536,0.5348,0.5374,0.5344,0.5354,0.5355,0.5359,0.543,0.5448,0.5499,0.5404,0.5405,0.5405,0,0.5447,0.5445,0.5473,0.5457,0.546,0.5471,0.5469,0.5474,0.5466,0.5457,0.5455,0.5435,0.5448,0.5418,0.5437,0.5416,0.5419,0.5413,0.5415,0.5417,0.5385,0.5435,0.5514,0.5522,0.5415,0.5415,0.5414,0,0.5511,0.5515,0.5532,0.553,0.5511,0.552,0.5513,0.5503,0.5505,0.5503,0.5504,0.5504,0.5505,0.5505,0.5485,0.5465,0.5506,0.5475,0.55,0.5501,0.5512,0.5512,0.5594,0.5511,0.5511,0.5511,0.5511,0,0.5575,0.5594,0.556,0.5571,0.5591,0.5564,0.5585,0.5574,0.5565,0.5574,0.5545,0.5554,0.5526,0.5532,0.5516,0.5534,0.5535,0.5528,0.5524,0.5532,0.5533,0.5534,0.5531,0.5513,0.5512,0.5512,0.5511,0,0.5651,0.5629,0.5646,0.5626,0.5621,0.5637,0.5621,0.563,0.5615,0.5627,0.5628,0.5605,0.5611,0.559,0.5592,0.5581,0.5608,0.5598,0.5611,0.5608,0.5635,0.5633,0.5722,0.5733,0.5642,0.5643,0.5643,0,0.5695,0.5708,0.5689,0.5692,0.5686,0.5692,0.5692,0.5665,0.5667,0.5658,0.5669,0.5671,0.5672,0.5682,0.5667,0.5668,0.5658,0.5689,0.5659,0.5666,0.566,0.566,0.5662,0.5697,0.5698,0.5699,0.5699,0,0.5774,0.5762,0.5764,0.5761,0.5763,0.576,0.5755,0.5759,0.573,0.5734,0.5738,0.5739,0.574,0.5743,0.5741,0.5734,0.5712,0.5708,0.5715,0.5724,0.5731,0.5729,0.563,0.5707,0.5706,0.5706,0.5705,0.5705,0.5836,0.5847,0.5835,0.5837,0.583,0.5826,0.5833,0.5819,0.5822,0.582,0.5803,0.5811,0.5801,0.5796,0.5791,0.5797,0.5782,0.5791,0.5793,0.5796,0.5801,0.5728,0.5796,0.5796,0.5795,0.5795,0.5795,0,0.5916,0.5906,0.5908,0.5901,0.5903,0.588,0.5873,0.5877,0.5883,0.5875,0.5876,0.5881,0.5883,0.5867,0.5867,0.5875,0.5865,0.5876,0.5876,0.5875,0.5814,0.5809,0.5884,0.5884,0.5884,0.5884,0.5884,0.5884,0.5958,0.5974,0.596,0.5972,0.5962,0.5968,0.5966,0.5962,0.5956,0.5962,0.5963,0.5952,0.594,0.5939,0.5941,0.5936,0.5938,0.5953,0.5945,0.5888,0.588,0.5871,0.5867,0.5953,0.5953,0.6006,0.6006,0.6007]},{"header":{"parameterUnit":"m.s-1","parameterCategory":1,"la1":30.2991,"la2":30.254,"lo1":-89.0895,"lo2":-89.0444,"dy":0.0017,"dx":0.0017,"nx":28,"ny":28,"refTime":"2023-10-20T21:00:00:Z","depth":0,"parameterNumber":3,"parameterNumberName":"V-component_of_WINDS"},"data":[0,0,0,0,0,0,0,0,0,0,0,0,0,0,0,0,0,0,0,0,0,0,0,0,0,0,0,0,0,0,0,0,0,0,0,0,0,0,0,0,0,0,0,0,0,0,0,0,0,0,0,0,0,0,0,0,0,0,1.8104,1.8103,0,1.8074,1.8073,1.8073,1.8077,1.8077,1.8078,1.8078,1.8042,1.8041,1.804,0,0,0,0,0,0,0,0,0,0,0,0,0,1.8159,1.8158,1.8104,1.8103,1.8103,1.8074,1.8073,1.8073,1.8077,1.8077,1.8078,1.8078,1.8043,1.8041,1.8039,0,0,0,0,0,0,0,0,0,0,0,0,0,1.8132,1.8157,1.8104,1.8101,1.8101,1.8074,1.8073,1.8073,1.8077,1.8077,1.8078,1.8079,1.8043,1.8041,1.8039,1.8011,0,0,1.8033,1.8032,0,0,0,0,0,0,0,0,1.8134,1.813,1.8102,1.8102,1.8101,1.808,1.808,1.8052,1.8076,1.8086,1.8078,1.8079,1.8054,1.8051,1.8044,1.801,1.8008,1.8033,1.8031,1.803,1.803,0,0,0,0,0,0,0,1.8136,1.8131,1.8092,1.8102,1.8101,1.81,1.8097,1.8074,1.8066,1.8085,1.8085,1.8082,1.8054,1.8046,1.8043,1.8007,1.8033,1.8031,1.8029,1.8029,1.7947,1.7946,0,0,0,0,0,0,1.8139,1.8133,1.8093,1.8091,1.812,1.8099,1.8095,1.8086,1.8066,1.8064,1.8081,1.8082,1.8049,1.8045,1.8041,1.8006,1.803,1.8028,1.8027,1.7948,1.7947,1.7946,0,0,0,0,0,0,1.814,1.8135,1.8094,1.8112,1.8107,1.8097,1.8086,1.8085,1.8077,1.8063,1.8061,1.8075,1.8049,1.8044,1.8019,1.8005,1.8027,1.8026,1.7949,1.7947,1.7946,1.7936,0,0,0,0,0,0,1.8141,1.8136,1.8126,1.8112,1.8106,1.8073,1.8085,1.8084,1.8074,1.8075,1.8057,1.8055,1.805,1.8022,1.8017,1.8002,1.8024,1.795,1.7948,1.7947,1.7937,1.7934,1.7932,0,0,0,0,0,1.8143,1.8124,1.8126,1.8121,1.8094,1.8073,1.8069,1.8065,1.8073,1.8062,1.8053,1.8055,1.8008,1.8019,1.8013,1.7998,1.7951,1.7949,1.7947,1.7939,1.7935,1.7932,0,0,0,0,0,0,1.8135,1.8122,1.8124,1.8099,1.8087,1.8073,1.806,1.8061,1.8046,1.8047,1.8041,1.8037,1.801,1.8002,1.8015,1.7969,1.798,1.7977,1.7976,1.7972,1.7969,1.7971,1.8022,0,0,0,0,0,1.8131,1.8116,1.8104,1.8084,1.8078,1.807,1.806,1.8058,1.8045,1.8039,1.8029,1.8014,1.7996,1.7984,1.7966,1.7936,1.7931,1.7923,1.792,1.7918,1.7915,1.7896,1.7892,1.7939,1.7939,1.7939,0,0,1.812,1.8111,1.8102,1.8082,1.8072,1.8055,1.8065,1.8047,1.8034,1.8036,1.8011,1.8003,1.7986,1.7958,1.7945,1.795,1.7901,1.7915,1.7914,1.7912,1.7894,1.7889,1.7885,1.7938,1.7938,1.7938,0,0,1.8093,1.8086,1.8067,1.8058,1.8044,1.8039,1.8034,1.802,1.8015,1.799,1.7991,1.7974,1.7943,1.7931,1.792,1.7888,1.7888,1.7882,1.7867,1.7849,1.7845,1.7842,1.7829,1.7824,1.7879,1.7879,1.7879,0,1.8082,1.8059,1.8057,1.8039,1.8029,1.8032,1.8011,1.8001,1.7982,1.7974,1.798,1.7941,1.7929,1.7898,1.789,1.7882,1.7875,1.7884,1.7847,1.7843,1.784,1.7827,1.7822,1.7878,1.7879,1.7879,1.7879,0,1.8045,1.8028,1.8014,1.7997,1.7985,1.7966,1.796,1.7948,1.7947,1.794,1.7914,1.7901,1.788,1.7873,1.7871,1.784,1.7843,1.7848,1.7859,1.7835,1.7822,1.7818,1.7877,1.7878,1.7878,1.7878,0,0,1.8011,1.7993,1.7988,1.7979,1.7964,1.795,1.793,1.7911,1.79,1.7886,1.7868,1.7842,1.7846,1.7834,1.7831,1.7815,1.7788,1.7822,1.7821,1.7815,1.7751,1.7746,1.7741,1.7789,1.7788,1.7788,1.7752,0,1.7981,1.7948,1.7946,1.7915,1.7898,1.79,1.7883,1.787,1.7863,1.7847,1.7839,1.7819,1.7827,1.782,1.7805,1.7795,1.7775,1.7798,1.777,1.7769,1.7773,1.7735,1.773,1.7697,1.7747,1.7747,1.7746,0,1.7942,1.7928,1.7896,1.7882,1.7875,1.786,1.7841,1.7826,1.7811,1.7807,1.7794,1.7793,1.777,1.7783,1.775,1.7765,1.7753,1.7746,1.7745,1.7741,1.7755,1.7728,1.7687,1.7681,1.7739,1.7739,1.774,0,1.7919,1.7892,1.7869,1.7862,1.7845,1.7834,1.7826,1.7812,1.7801,1.7784,1.7776,1.7757,1.7746,1.773,1.7723,1.7733,1.7689,1.7702,1.7683,1.7683,1.7673,1.7674,1.7628,1.7668,1.7668,1.7668,1.7669,0,1.7885,1.7865,1.7858,1.7844,1.7821,1.7817,1.7794,1.7786,1.7774,1.7756,1.7757,1.774,1.7732,1.7713,1.7707,1.768,1.7675,1.767,1.7668,1.7669,1.7669,1.766,1.7661,1.7667,1.7667,1.7668,1.7668,0,1.7854,1.785,1.7824,1.7811,1.7807,1.779,1.7778,1.7763,1.7757,1.7735,1.7729,1.7718,1.7696,1.7688,1.7661,1.7657,1.7624,1.7625,1.763,1.7629,1.7611,1.7612,1.7556,1.7547,1.7595,1.7595,1.7594,0,1.7832,1.7817,1.7802,1.7792,1.7784,1.7766,1.7755,1.7751,1.7738,1.772,1.7706,1.7685,1.7668,1.7632,1.762,1.7599,1.7598,1.758,1.7595,1.7596,1.7596,1.7596,1.7594,1.7577,1.7576,1.7576,1.7576,0,1.7793,1.7792,1.7776,1.7759,1.7746,1.7732,1.7719,1.7709,1.7703,1.7689,1.7667,1.7654,1.7626,1.7604,1.7582,1.7572,1.7571,1.7572,1.7566,1.7566,1.7568,1.7565,1.7621,1.7572,1.7573,1.7573,1.7573,1.7573,1.7765,1.7751,1.7739,1.7721,1.7711,1.7698,1.7683,1.7675,1.7658,1.7636,1.7635,1.7611,1.7594,1.7565,1.7554,1.7534,1.7538,1.753,1.7528,1.7526,1.7524,1.7573,1.753,1.753,1.753,1.753,1.753,0,1.7725,1.7717,1.7701,1.7682,1.7668,1.7672,1.7657,1.7643,1.7623,1.7609,1.7592,1.7566,1.7545,1.7532,1.7509,1.7495,1.7495,1.749,1.749,1.7487,1.7522,1.7528,1.749,1.749,1.749,1.749,1.749,1.7491,1.7702,1.7678,1.7675,1.7645,1.7637,1.7615,1.7606,1.7593,1.7582,1.7554,1.7536,1.7529,1.7514,1.7491,1.747,1.7466,1.7457,1.7451,1.7448,1.7481,1.7485,1.7488,1.7494,1.745,1.745,1.7414,1.7414,1.7414]}]]